Fort Myers, FL

2:33 AM EDT on August 29, 2016 (GMT -0400)
Southwest Florida International

Weather History for KRSW - July, 2013

Change the Weather History Date:

Tuesday, July 2, 2013

  Actual Average Record
Temperature  
Mean Temperature 78 °F -  
Max Temperature 84 °F 90 °F 98 °F (1998)
Min Temperature 71 °F 74 °F 68 °F (1931)
Cooling Degree Days 12    
Growing Degree Days 28 (Base 50)    
Moisture  
Dew Point 73 °F    
Average Humidity 91    
Maximum Humidity 100    
Minimum Humidity 74    
Precipitation  
Precipitation 2.71 in - - ()
Sea Level Pressure  
Sea Level Pressure 30.05 in    
Wind  
Wind Speed 7 mph (SE)    
Max Wind Speed 24 mph    
Max Gust Speed 48 mph    
Visibility 8 miles    
Events Fog , Rain , Thunderstorm    
Averages and records for this station are not official NWS values.
T = Trace of Precipitation, MM = Missing Value Source: NWS Daily Summary

Daily Weather History Graph

Daily Weather History Graph

Search for Another Location

Airport or City:

Trip Planner

Search our weather history database for the weather conditions in past years. The results will help you decide how hot, cold, wet, or windy it might be!

Date:

Astronomy

Jul. 02, 2013 Rise Set
Actual Time 6:37 AM EDT 8:24 PM EDT
Civil Twilight 6:11 AM EDT 8:50 PM EDT
Nautical Twilight 5:40 AM EDT 9:21 PM EDT
Astronomical Twilight 5:07 AM EDT 9:54 PM EDT
Moon 2:24 AM EDT (7/2) 3:49 PM EDT (7/2)
Length of Visible Light 14h 38m
Length of Day
13h 46m
Waning Crescent, 26% of the Moon is Illuminated
Jul 2
Waning Crescent
Jul 8
New
Jul 15
First Quarter
Jul 22
Full
Jul 29
Last Quarter

Hourly Weather History & Observations

Time (EDT) Temp. Heat Index Dew Point Humidity Pressure Visibility Wind Dir Wind Speed Gust Speed Precip Events Conditions
12:53 AM 73.0 °F - 72.0 °F 96% 30.01 in 10.0 mi SE 9.2 mph - 0.00 in   Mostly Cloudy
1:53 AM 73.0 °F - 72.0 °F 96% 29.99 in 10.0 mi SE 5.8 mph - 0.00 in   Overcast
2:53 AM 73.0 °F - 73.0 °F 100% 29.98 in 10.0 mi ESE 4.6 mph - N/A   Overcast
3:53 AM 73.0 °F - 73.0 °F 100% 29.97 in 10.0 mi East 4.6 mph - N/A   Clear
4:53 AM 73.0 °F - 73.0 °F 100% 29.97 in 10.0 mi ESE 4.6 mph - N/A   Overcast
5:53 AM 73.9 °F - 73.0 °F 97% 30.00 in 10.0 mi East 3.5 mph - N/A   Overcast
6:53 AM 73.9 °F - 73.0 °F 97% 30.00 in 9.0 mi ENE 3.5 mph - N/A   Partly Cloudy
7:53 AM 75.0 °F - 73.9 °F 96% 30.03 in 10.0 mi Calm Calm - N/A   Mostly Cloudy
8:39 AM 75.2 °F - 73.4 °F 94% 30.06 in 10.0 mi Calm Calm - N/A Thunderstorm Scattered Clouds
8:53 AM 75.0 °F - 73.9 °F 96% 30.06 in 10.0 mi WSW 3.5 mph - N/A Thunderstorm Partly Cloudy
9:17 AM 75.2 °F - 73.4 °F 94% 30.07 in 10.0 mi West 6.9 mph - 0.00 in Thunderstorm Mostly Cloudy
9:19 AM 73.4 °F - 73.4 °F 100% 30.07 in 9.0 mi West 6.9 mph - 0.00 in Rain , Thunderstorm Light Rain
9:34 AM 73.4 °F - 73.4 °F 100% 30.06 in 5.0 mi Calm Calm - 0.01 in Rain Light Rain
10:00 AM 73.4 °F - 73.4 °F 100% 30.06 in 5.0 mi NNE 3.5 mph - 0.01 in Rain Rain
10:53 AM 75.9 °F - 73.9 °F 94% 30.05 in 10.0 mi NE 3.5 mph - 0.02 in   Clear
11:53 AM 81.0 °F 87.3 °F 75.9 °F 85% 30.04 in 10.0 mi Calm Calm - N/A   Partly Cloudy
12:40 PM 84.2 °F 92.3 °F 75.2 °F 74% 30.05 in 10.0 mi Calm Calm - N/A   Mostly Cloudy
12:53 PM 84.0 °F 91.9 °F 75.0 °F 74% 30.04 in 10.0 mi Calm Calm - N/A   Mostly Cloudy
1:06 PM 82.4 °F 89.5 °F 75.2 °F 79% 30.04 in 10.0 mi East 13.8 mph 17.3 mph 0.00 in Rain Light Rain
1:10 PM 80.6 °F 85.4 °F 73.4 °F 79% 30.05 in 10.0 mi East 16.1 mph - 0.00 in Rain , Thunderstorm Light Thunderstorms and Rain
1:37 PM 75.2 °F - 71.6 °F 89% 30.06 in 0.8 mi West 24.2 mph 32.2 mph 0.18 in Rain , Thunderstorm Thunderstorms and Rain
1:43 PM 73.4 °F - 68.0 °F 83% 30.05 in 0.5 mi WSW 19.6 mph 32.2 mph 0.30 in Rain , Thunderstorm Heavy Thunderstorms and Rain
1:53 PM 75.0 °F - 71.1 °F 87% 30.06 in 0.5 mi SSW 19.6 mph 31.1 mph 0.63 in Fog , Rain , Thunderstorm Heavy Thunderstorms and Rain
1:55 PM 75.2 °F - 71.6 °F 89% 30.08 in 0.2 mi South 21.9 mph 34.5 mph 0.11 in Fog , Rain , Thunderstorm Heavy Thunderstorms and Rain
2:03 PM 71.6 °F - 71.6 °F 100% 30.08 in 0.2 mi South 24.2 mph 47.2 mph 1.00 in Fog , Rain , Thunderstorm Heavy Thunderstorms and Rain
2:16 PM 71.6 °F - 69.8 °F 94% 30.07 in 0.2 mi SE 13.8 mph 48.3 mph 1.91 in Fog , Rain , Thunderstorm Heavy Thunderstorms and Rain
2:21 PM 73.4 °F - 69.8 °F 88% 30.07 in 0.5 mi SSE 9.2 mph - 2.00 in Fog , Rain , Thunderstorm Heavy Thunderstorms and Rain
2:28 PM 75.2 °F - 71.6 °F 89% 30.07 in 2.0 mi SSE 4.6 mph - 2.05 in Rain , Thunderstorm Heavy Thunderstorms and Rain
2:37 PM 75.2 °F - 71.6 °F 89% 30.07 in 7.0 mi SE 5.8 mph - 2.05 in Rain , Thunderstorm Light Thunderstorms and Rain
2:45 PM 73.4 °F - 71.6 °F 94% 30.07 in 9.0 mi SE 5.8 mph - 2.05 in Rain , Thunderstorm Light Thunderstorms and Rain
2:53 PM 75.0 °F - 72.0 °F 90% 30.06 in 10.0 mi SE 4.6 mph - 2.05 in Rain Light Rain
3:35 PM 73.4 °F - 71.6 °F 94% 30.06 in 10.0 mi NE 9.2 mph - 0.01 in Rain Light Rain
3:53 PM 75.9 °F - 73.0 °F 91% 30.04 in 10.0 mi NE 6.9 mph - 0.01 in   Partly Cloudy
4:53 PM 78.1 °F - 73.0 °F 84% 30.03 in 10.0 mi East 6.9 mph - N/A   Clear
5:53 PM 80.1 °F 83.8 °F 72.0 °F 76% 30.05 in 10.0 mi SE 8.1 mph - N/A   Scattered Clouds
6:53 PM 75.9 °F - 73.0 °F 91% 30.08 in 10.0 mi SE 11.5 mph - 0.00 in Rain Light Rain
7:53 PM 73.9 °F - 73.0 °F 97% 30.08 in 10.0 mi SE 6.9 mph - 0.00 in   Scattered Clouds
8:53 PM 73.0 °F - 71.1 °F 93% 30.08 in 10.0 mi Calm Calm - N/A   Clear
9:53 PM 73.0 °F - 72.0 °F 96% 30.09 in 10.0 mi ESE 4.6 mph - N/A   Partly Cloudy
10:53 PM 73.0 °F - 71.1 °F 93% 30.09 in 10.0 mi SE 5.8 mph - N/A   Clear
11:53 PM 73.0 °F - 71.1 °F 93% 30.07 in 10.0 mi East 5.8 mph - N/A   Clear